Wind_Speed
89 88 85 74 82 80 80 79 76 74 69 67 65 62 60 59 57 54 53 51 50 49 47 46 46 45 44 45 42 39 42 41 41 40 40 42 41 42 44 43 42 44 47 47 52 54 49
94 92 90 88 87 84 84 83 81 75 76 71 69 66 63 62 59 58 57 54 53 51 50 49 49 48 47 46 44 43 44 42 42 42 42 44 46 49 50 51 46 47 50 48 53 43 36
105 97 91 93 78 71 85 84 85 79 75 72 69 70 68 66 64 62 60 57 56 54 53 52 52 50 50 44 44 46 47 49 49 51 53 54 54 57 61 61 57 55 56 47 36 37 35
105 107 97 94 89 84 90 79 71 77 72 77 79 72 71 68 65 65 62 61 60 57 56 54 53 52 56 49 50 49 50 51 53 54 55 60 63 68 70 63 58 49 46 38 33 33 31
101 109 107 99 97 93 90 80 86 80 80 79 79 72 70 69 67 64 62 63 60 57 57 55 55 54 53 52 51 51 52 52 55 57 62 64 66 61 52 44 48 43 33 32 31 27 25
94 103 111 109 101 92 93 85 85 69 68 84 83 74 73 70 68 63 63 63 60 60 60 58 56 60 64 52 54 53 51 53 58 60 59 52 49 41 34 33 33 33 31 32 28 27 27
89 94 102 109 111 101 87 95 91 93 83 71 86 82 69 70 69 71 74 65 65 69 70 61 64 61 65 72 70 60 58 59 58 56 54 40 37 32 31 31 30 29 35 34 29 29 28
76 86 94 102 107 108 98 90 95 93 91 81 85 81 80 81 74 71 67 70 66 69 69 69 70 70 68 68 67 61 60 60 62 59 49 44 33 31 35 32 32 36 36 36 34 33 32
70 76 86 95 101 102 109 98 90 84 86 76 75 81 84 86 89 80 76 73 67 69 75 70 68 71 67 67 69 63 58 56 55 49 46 44 35 38 35 34 36 38 39 39 40 40 39
60 71 77 87 94 98 107 113 99 90 82 90 75 73 86 83 84 77 69 71 75 77 82 78 72 66 69 66 63 60 54 56 51 48 45 44 39 40 38 38 39 42 41 43 42 45 44
43 61 73 80 87 94 101 112 109 91 99 90 87 78 79 87 71 72 71 77 78 81 82 76 63 58 57 58 55 56 59 52 47 46 47 39 43 41 47 43 46 44 43 45 44 46 48
39 45 63 77 82 90 97 103 103 104 95 95 93 91 86 78 86 78 78 78 81 83 83 77 64 59 56 53 54 53 47 48 48 50 50 48 48 49 45 50 49 49 50 50 51 51 52
39 38 45 67 81 85 93 96 102 107 96 96 97 94 91 82 79 76 78 75 85 86 81 72 65 60 57 52 49 49 47 48 51 51 53 52 50 54 51 52 52 49 51 52 54 55 53
42 46 48 52 72 84 87 94 101 100 110 93 95 91 93 89 84 75 68 82 94 86 78 72 70 66 63 59 53 52 52 53 52 51 52 53 56 54 56 51 51 52 51 55 58 58 56
44 51 54 54 69 74 86 91 95 98 104 101 92 86 86 89 81 80 74 84 86 78 75 73 73 68 64 61 61 57 56 52 53 52 51 54 58 61 57 54 52 53 58 59 64 64 64
40 45 48 54 60 68 77 88 93 97 97 98 93 94 91 92 80 85 88 87 82 76 71 77 72 70 66 64 64 61 62 60 61 61 57 57 60 61 61 59 59 59 64 66 66 65 64
34 31 36 47 54 59 60 78 89 93 98 95 106 90 87 84 83 89 90 85 84 79 78 76 75 74 69 68 68 66 63 65 67 64 61 62 62 64 66 64 64 65 66 65 65 65 63
28 24 28 40 42 58 45 61 83 95 94 95 103 111 97 88 94 94 86 86 85 83 79 79 75 75 73 73 69 69 70 69 66 66 67 68 67 67 63 63 64 60 62 65 63 61 62
20 22 25 32 33 44 49 55 67 85 98 94 95 97 99 94 100 95 89 88 86 85 83 79 73 76 78 77 79 78 76 75 71 70 71 69 69 61 62 63 61 62 60 59 58 60 62
18 16 23 25 33 43 52 54 57 62 84 90 96 104 105 110 101 97 89 88 85 80 83 79 81 78 75 79 80 81 81 78 74 71 69 64 63 60 54 56 58 57 57 58 59 60 57
17 15 18 22 32 34 35 63 75 73 75 93 99 104 105 105 99 94 89 87 84 78 80 80 79 78 82 82 83 86 81 78 70 61 60 60 57 54 53 54 53 53 56 57 60 61 63
11 13 15 25 23 16 40 46 74 83 87 95 97 104 99 94 94 93 89 87 82 79 75 80 73 75 79 90 90 84 80 71 60 58 56 54 51 50 49 50 50 50 52 53 55 56 63
8 6 12 18 14 18 46 39 48 72 84 94 93 88 95 91 96 91 87 88 82 80 72 75 78 80 85 86 78 67 58 55 49 48 48 47 47 48 49 50 49 52 49 53 55 58 60
9 11 9 14 11 12 54 64 47 54 59 70 84 91 80 87 83 89 82 83 77 76 75 83 82 81 72 70 63 58 54 50 47 46 47 47 46 47 45 46 47 48 51 51 54 51 47
15 12 11 17 18 18 35 51 72 75 69 54 74 74 62 65 63 65 61 58 76 74 74 70 68 60 54 51 50 47 47 47 47 46 45 43 42 41 42 43 43 45 49 55 48 43 40
13 14 17 11 19 21 27 44 27 48 49 62 69 68 65 56 72 65 63 69 69 60 58 56 55 48 49 47 46 45 44 42 43 41 39 37 36 38 42 41 45 48 51 46 41 43 41
18 16 16 17 16 21 20 29 34 33 31 32 36 35 27 33 38 44 49 50 51 50 48 48 46 45 44 42 41 40 39 35 34 33 33 33 38 39 41 44 44 45 43 44 37 34 42
21 23 20 19 21 21 19 19 22 25 26 29 34 41 36 35 38 41 39 39 41 39 37 38 39 39 39 37 36 33 32 29 30 32 34 35 37 39 42 45 47 38 36 42 38 35 37
19 25 28 25 23 23 22 22 21 21 23 25 27 30 33 34 37 38 37 38 38 35 36 38 36 34 32 32 30 28 28 29 31 34 34 36 37 43 40 38 36 34 36 36 37 35 34
Wind_Direction
235 234 235 240 238 238 234 234 234 232 234 234 233 233 233 233 233 233 234 234 237 238 240 239 241 244 246 247 248 250 253 255 258 261 264 268 270 271 271 272 274 279 280 284 285 284 290
229 234 237 234 236 236 238 236 229 232 227 233 233 233 233 234 232 234 235 234 236 239 240 243 245 246 247 249 252 251 254 257 260 263 265 267 268 269 270 271 273 276 284 285 284 284 276
230 227 232 234 225 235 234 237 239 236 230 232 233 233 233 233 234 234 235 235 237 238 241 242 244 246 250 250 249 253 256 259 261 262 266 267 268 270 271 274 274 278 282 282 279 271 275
232 228 225 227 229 229 233 232 232 236 229 233 229 235 234 235 235 235 235 237 237 238 239 240 242 245 252 248 250 251 255 260 262 265 269 271 275 277 270 270 272 278 276 270 268 270 273
230 230 228 224 223 225 232 227 233 235 236 231 229 234 234 233 234 235 236 237 237 239 239 241 242 247 251 249 249 254 258 262 267 272 275 278 276 276 270 265 265 271 262 262 260 269 264
231 230 230 225 222 221 229 223 231 226 232 233 235 230 232 232 231 233 234 236 237 238 237 240 244 249 249 250 251 255 260 266 270 274 279 273 272 265 259 263 263 258 258 251 260 264 266
233 230 230 231 222 220 223 225 232 226 231 233 231 234 229 232 232 234 231 240 237 242 239 248 251 247 253 254 256 254 255 263 270 275 278 267 260 259 249 245 251 256 254 259 258 262 261
238 232 228 230 231 224 218 222 225 229 230 232 230 232 235 232 233 232 232 237 239 242 246 245 244 247 250 252 253 254 258 265 272 275 264 256 253 255 249 249 248 250 255 255 258 259 265
240 237 231 228 228 230 224 219 221 222 229 220 227 230 232 233 236 231 234 234 239 239 245 242 245 250 245 251 255 259 259 265 264 258 250 251 248 249 253 256 257 258 257 257 258 262 270
243 240 235 231 225 225 229 224 219 219 222 226 229 224 228 230 237 241 241 233 239 243 247 253 257 253 250 253 256 256 261 265 258 246 245 249 246 253 251 254 259 259 261 262 264 268 273
250 242 237 233 228 224 225 227 223 220 222 227 221 217 215 227 240 241 242 238 239 243 245 254 254 251 248 252 260 256 260 253 252 245 244 253 254 251 257 259 259 263 263 263 269 270 271
253 248 240 235 231 225 223 225 225 221 220 222 224 222 226 227 229 231 239 241 241 239 240 251 253 254 254 253 257 256 249 248 246 247 248 250 255 256 256 260 263 263 265 267 267 270 270
258 258 248 236 233 227 223 221 222 224 218 219 223 228 231 231 229 235 229 235 234 232 239 247 252 255 257 252 251 250 251 247 250 252 256 258 254 260 260 259 260 262 268 268 269 269 271
265 266 261 250 231 228 224 220 219 221 221 219 223 227 233 231 233 230 226 232 233 235 239 243 244 248 252 249 248 249 248 247 246 249 254 256 255 257 262 260 262 265 267 267 269 271 273
275 272 264 257 232 226 223 220 217 216 219 217 220 226 231 228 226 227 229 232 233 240 238 238 243 239 244 247 247 248 246 249 246 249 252 257 256 260 264 264 264 267 269 270 270 272 271
285 278 263 244 228 224 221 220 217 214 216 218 215 218 226 229 224 224 232 232 233 236 239 238 242 242 243 247 249 252 253 254 251 252 255 261 261 264 265 263 264 268 270 273 273 273 273
285 285 272 233 221 217 225 217 215 214 213 214 214 217 222 223 221 221 229 231 235 236 237 240 242 242 242 246 249 254 255 256 255 256 259 261 263 264 263 264 268 270 272 272 270 272 274
273 271 263 220 216 215 225 222 216 214 211 213 215 217 219 222 223 223 226 231 232 233 237 239 241 239 241 249 253 256 256 255 260 259 262 263 265 264 265 266 268 271 267 269 271 273 273
260 254 235 217 214 221 221 223 215 214 214 212 209 214 220 224 224 223 225 228 232 232 235 239 241 239 242 249 250 252 255 258 258 262 262 265 265 261 261 265 265 266 268 269 270 272 275
249 264 238 225 216 239 242 224 211 211 215 215 206 205 212 218 221 222 225 228 228 229 234 240 241 242 245 249 250 253 254 258 258 263 260 254 255 260 259 259 263 263 265 267 269 273 279
245 269 235 228 236 260 253 209 203 201 208 212 209 209 214 217 220 222 222 227 227 230 234 237 240 244 247 250 251 252 254 255 254 250 251 252 255 254 252 255 258 261 265 270 275 280 285
256 250 245 213 222 209 154 198 197 201 208 211 211 209 212 218 224 223 224 227 230 232 238 239 241 244 248 248 250 252 252 246 248 249 250 251 248 249 250 253 257 263 269 277 282 285 286
244 204 232 185 210 189 156 174 197 194 202 208 208 208 214 221 222 225 229 232 232 231 245 245 244 244 244 244 242 240 239 241 243 243 241 240 243 246 251 256 263 268 277 280 285 286 286
201 165 164 161 167 183 171 164 179 201 189 203 205 207 216 218 222 225 230 233 236 241 243 241 241 239 237 238 240 243 244 236 230 231 236 241 246 252 260 265 270 278 282 286 288 288 280
193 193 176 151 151 153 179 163 178 184 187 190 206 218 216 217 227 223 227 228 237 235 235 233 232 234 235 233 227 220 220 224 229 235 242 249 256 265 271 277 280 286 286 288 288 278 277
203 197 195 179 166 165 153 179 177 176 185 196 204 216 223 221 226 226 235 230 224 223 220 222 222 222 220 217 217 222 229 232 235 242 252 262 269 273 278 278 284 289 288 289 277 274 280
221 207 212 213 193 183 169 162 166 165 164 170 182 187 170 196 205 203 210 208 206 208 208 208 209 209 213 217 220 225 233 242 250 258 264 267 271 276 278 283 287 287 285 279 266 278 284
207 210 210 212 211 208 198 188 175 169 166 168 165 164 178 176 177 183 187 193 196 198 206 209 210 211 216 224 230 240 248 255 262 265 269 273 275 278 281 286 291 284 273 270 276 283 285
209 206 209 207 210 206 208 205 197 191 183 182 182 177 178 180 185 185 190 193 194 198 204 208 213 220 228 235 242 250 254 258 263 265 272 278 278 276 283 290 278 268 265 273 280 285 286
Height
5652 5659 5667 5673 5680 5688 5697 5705 5713 5721 5729 5737 5744 5750 5755 5761 5766 5772 5777 5781 5786 5790 5794 5796 5799 5801 5804 5807 5809 5812 5813 5815 5817 5819 5820 5821 5822 5821 5822 5822 5824 5823 5823 5824 5821 5822 5821
5628 5638 5646 5655 5662 5671 5678 5686 5696 5704 5712 5722 5730 5736 5743 5750 5754 5760 5766 5769 5774 5779 5783 5786 5789 5791 5794 5799 5801 5803 5805 5807 5809 5811 5812 5813 5813 5812 5813 5811 5816 5815 5815 5815 5814 5813 5811
5600 5612 5624 5635 5644 5651 5662 5671 5680 5687 5695 5706 5715 5723 5730 5736 5742 5747 5753 5758 5763 5768 5772 5775 5778 5780 5783 5793 5792 5794 5796 5798 5800 5802 5803 5802 5802 5803 5802 5802 5805 5806 5806 5806 5806 5805 5806
5573 5585 5599 5611 5623 5633 5642 5654 5660 5672 5682 5691 5700 5710 5717 5723 5729 5735 5741 5745 5750 5756 5760 5764 5767 5768 5774 5781 5780 5785 5786 5788 5789 5792 5792 5790 5791 5790 5789 5792 5793 5795 5796 5797 5798 5799 5799
5545 5560 5572 5587 5599 5613 5625 5636 5646 5655 5666 5677 5685 5696 5703 5710 5716 5722 5727 5732 5738 5744 5749 5752 5756 5758 5765 5771 5773 5774 5776 5778 5779 5781 5780 5780 5779 5776 5775 5780 5782 5786 5788 5789 5790 5791 5793
5519 5533 5547 5561 5577 5591 5604 5617 5630 5638 5648 5660 5668 5680 5689 5695 5701 5708 5715 5720 5725 5731 5735 5739 5743 5749 5754 5759 5762 5763 5765 5767 5768 5769 5769 5768 5767 5765 5766 5772 5775 5777 5779 5781 5783 5785 5784
5495 5508 5523 5536 5551 5566 5581 5596 5610 5624 5634 5645 5654 5664 5674 5681 5686 5693 5700 5709 5715 5718 5722 5732 5736 5740 5739 5742 5748 5752 5754 5756 5758 5759 5761 5758 5758 5759 5762 5763 5768 5770 5772 5773 5775 5776 5776
5475 5487 5499 5514 5529 5542 5558 5576 5590 5604 5617 5629 5639 5649 5658 5665 5672 5682 5688 5696 5706 5706 5710 5715 5719 5722 5726 5729 5733 5739 5743 5747 5746 5749 5749 5749 5753 5755 5754 5756 5759 5762 5764 5765 5766 5768 5767
5457 5466 5477 5491 5506 5522 5536 5554 5570 5585 5600 5613 5625 5634 5643 5648 5657 5664 5678 5690 5692 5689 5688 5696 5706 5707 5712 5718 5720 5725 5730 5735 5734 5736 5737 5740 5746 5744 5747 5749 5751 5754 5755 5756 5757 5758 5760
5441 5448 5458 5469 5483 5498 5513 5529 5549 5564 5582 5598 5611 5618 5629 5634 5641 5656 5665 5675 5672 5675 5670 5680 5687 5694 5699 5705 5707 5713 5717 5720 5721 5726 5727 5729 5734 5735 5739 5740 5743 5744 5746 5746 5748 5750 5752
5426 5430 5438 5449 5462 5476 5491 5510 5528 5546 5563 5580 5594 5603 5609 5620 5634 5641 5655 5660 5660 5658 5648 5665 5673 5681 5686 5690 5700 5700 5704 5705 5710 5715 5715 5725 5723 5728 5726 5734 5733 5735 5736 5736 5738 5739 5740
5412 5414 5419 5428 5440 5454 5470 5490 5507 5526 5544 5562 5576 5588 5597 5606 5615 5630 5638 5644 5641 5636 5625 5649 5659 5665 5671 5680 5686 5686 5692 5696 5700 5702 5706 5711 5713 5715 5723 5719 5721 5723 5724 5726 5727 5727 5727
5398 5400 5402 5409 5419 5432 5448 5466 5487 5504 5525 5543 5559 5568 5579 5591 5604 5614 5622 5628 5615 5604 5623 5640 5645 5650 5658 5667 5672 5676 5680 5685 5688 5692 5695 5701 5705 5702 5707 5709 5709 5712 5713 5713 5713 5711 5716
5383 5384 5387 5390 5398 5411 5426 5444 5464 5484 5504 5524 5543 5552 5560 5575 5581 5596 5605 5601 5579 5599 5615 5628 5633 5640 5646 5652 5659 5663 5667 5671 5677 5682 5684 5686 5687 5692 5694 5698 5698 5698 5700 5700 5699 5700 5701
5368 5368 5368 5371 5378 5390 5405 5424 5445 5466 5485 5506 5524 5533 5539 5553 5562 5577 5583 5565 5570 5596 5610 5615 5619 5627 5633 5638 5645 5650 5656 5663 5667 5670 5674 5673 5673 5677 5682 5685 5687 5684 5683 5684 5681 5684 5681
5352 5349 5346 5349 5358 5371 5386 5404 5426 5446 5466 5484 5502 5514 5521 5532 5548 5558 5553 5551 5569 5583 5594 5600 5606 5615 5623 5628 5633 5638 5643 5650 5653 5656 5661 5662 5659 5664 5667 5670 5671 5670 5668 5668 5666 5666 5663
5340 5335 5330 5332 5343 5359 5370 5386 5406 5426 5445 5462 5480 5487 5499 5514 5530 5527 5524 5543 5559 5568 5578 5585 5596 5603 5612 5615 5619 5625 5630 5635 5638 5644 5648 5649 5647 5649 5653 5655 5655 5653 5652 5652 5650 5650 5647
5331 5328 5325 5327 5335 5349 5360 5372 5388 5406 5424 5434 5455 5458 5482 5494 5500 5503 5518 5530 5543 5552 5560 5569 5583 5588 5598 5602 5608 5611 5613 5620 5625 5631 5630 5632 5631 5631 5636 5635 5638 5639 5634 5633 5634 5636 5633
5324 5323 5322 5325 5333 5341 5346 5353 5366 5382 5399 5419 5426 5447 5463 5475 5476 5489 5507 5515 5527 5538 5547 5556 5567 5577 5588 5588 5590 5592 5598 5605 5611 5614 5615 5618 5616 5617 5615 5620 5623 5621 5620 5619 5617 5617 5615
5318 5317 5319 5322 5329 5331 5330 5337 5351 5367 5379 5391 5409 5422 5432 5443 5461 5481 5495 5502 5516 5525 5534 5545 5554 5564 5572 5572 5576 5579 5584 5588 5594 5599 5602 5602 5603 5603 5602 5603 5609 5608 5608 5605 5605 5602 5605
5315 5314 5315 5321 5323 5314 5305 5307 5322 5342 5357 5368 5389 5397 5417 5434 5454 5475 5485 5493 5506 5515 5522 5532 5539 5549 5556 5557 5559 5563 5571 5575 5578 5583 5585 5588 5591 5589 5588 5588 5593 5595 5593 5590 5588 5589 5584
5312 5311 5311 5314 5315 5312 5296 5299 5301 5324 5343 5362 5380 5394 5422 5445 5453 5464 5469 5482 5496 5503 5510 5520 5528 5535 5538 5540 5548 5553 5558 5561 5565 5569 5571 5574 5575 5576 5578 5577 5580 5584 5582 5579 5579 5578 5570
5310 5310 5308 5309 5312 5312 5303 5309 5319 5320 5340 5356 5377 5406 5425 5437 5444 5453 5463 5475 5484 5493 5501 5509 5513 5518 5520 5526 5533 5538 5542 5546 5552 5555 5559 5563 5563 5566 5567 5565 5567 5570 5575 5566 5566 5562 5557
5309 5309 5308 5308 5311 5312 5312 5315 5330 5340 5348 5368 5387 5404 5417 5425 5433 5441 5453 5467 5475 5482 5490 5489 5494 5500 5507 5514 5520 5526 5531 5535 5538 5542 5547 5552 5552 5555 5556 5554 5556 5560 5558 5555 5549 5547 5541
5308 5310 5310 5310 5313 5315 5318 5319 5327 5339 5354 5369 5385 5392 5403 5411 5421 5428 5442 5452 5460 5466 5467 5474 5482 5491 5496 5503 5508 5515 5518 5523 5527 5531 5537 5540 5542 5544 5545 5543 5548 5546 5542 5540 5538 5538 5531
5308 5310 5312 5314 5315 5319 5322 5326 5330 5339 5348 5360 5368 5380 5391 5402 5407 5419 5432 5439 5442 5445 5452 5462 5473 5480 5489 5496 5501 5504 5511 5516 5518 5521 5526 5528 5529 5533 5532 5533 5534 5532 5525 5530 5526 5524 5517
5308 5310 5314 5317 5319 5322 5327 5331 5336 5343 5349 5356 5365 5375 5385 5394 5398 5406 5422 5428 5433 5440 5449 5458 5467 5474 5483 5491 5493 5493 5501 5505 5509 5513 5518 5517 5518 5520 5519 5518 5521 5519 5515 5510 5516 5518 5505
5307 5310 5314 5319 5322 5325 5329 5334 5341 5347 5353 5360 5366 5372 5382 5386 5395 5407 5419 5426 5431 5438 5447 5454 5463 5467 5476 5483 5481 5484 5494 5497 5501 5503 5506 5507 5508 5508 5508 5507 5507 5506 5503 5499 5502 5504 5499
5304 5308 5312 5317 5324 5327 5331 5336 5342 5349 5356 5361 5367 5371 5380 5390 5399 5408 5415 5419 5425 5432 5442 5447 5456 5461 5469 5472 5473 5481 5487 5491 5492 5494 5496 5496 5497 5493 5499 5499 5493 5491 5491 5491 5491 5493 5489